星链-5308 (STARLINK-5308 )

导读 | 星芒AI

STARLINK-5308 是 SpaceX Starlink 项目中的一颗低轨通信卫星,属于第53批发射的星链卫星群。该卫星运行在约550公里高的近地轨道,旨在为全球提供高速互联网服务。它采用先进的相控阵天线和激光通信技术,提升网络覆盖与传输效率。作为星链系统的一部分,STARLINK-5308 支持偏远地区的宽带接入,助力实现全球互联网覆盖目标。

基本信息
目录编号:
55300
目录名称:
STARLINK-5308
国际标识:
2023-010AH
轨道中心:
EARTH
卫星名称:
星链-5308
卫星全名:
星链-5308 (STARLINK-5308 )
卫星状态:
在轨 (已飞行1067 天)
发射日期:
2023-01-19 UTC
国别 :
美国 (US)
星等 :
--
轨道信息
数据来源 国际轨道数据 AOE轨道数据
星历时间 2025-12-21T09:10:16+0800
10小时前
查看轨道信息
2025-12-20T12:00:00+0800
1天前
查看轨道信息
半长轴 6950.19km 6950.183km
偏心率 0.0002804 0.0002861
轨道倾角 69.998° 69.999°
近地点辐角 270.259° 275.401°
升交点赤经 222.565° 224.789°
平近点角 89.825° 7.833°
近地点 570.104km 570.057km
远地点 574.002km 574.035km
周期 96.107分钟 96.107分钟
每日圈数 14.983312 14.983333
详细信息
固有亮度:
5
最大亮度:
2.5
卫星平台:
Starlink v1.5
覆盖范围:
全球
运营商:
太空探索技术公司
运营商所在国:
美国
制造商(研发单位):
太空探索技术公司
制造商所在国:
美国
使用方式:
暂无
卫星简介
星链(Starlink)计划是由太空探索技术公司(SpaceX)提出的一个巨型低轨卫星互联网星座项目,计划在2019年至2024年间在太空搭建由约1.2万颗卫星组成的“星链”网络,其中1584颗将部署在地球上空550千米处的近地轨道,并从2020年开始工作。该卫星仍在工作。
2D轨道图
3D轨道图
轨道高度分析图
轨道倾角分析图
轨道综合分析图
查看轨道综合分析图